OE3MHU-12 Weather Reports


time (UTC)temp
C
wind
direction
speed
KPH
gust
KPH
rain 1hr
cm
rain 24hr
cm
rain mn
cm
humidity
%
barometer
mb
20260504042541 6 79 0.0 0.0 0.00 0.00 0.00 80 1012.7
20260504035541 6 79 0.0 0.0 0.00 0.00 0.00 79 1012.6
20260504032542 6 79 0.0 0.0 0.00 0.00 0.00 78 1012.7
20260504025542 7 79 0.0 0.0 0.00 0.00 0.00 77 1012.8
20260504022542 7 79 0.0 0.0 0.00 0.00 0.00 76 1012.6
20260504015542 8 79 0.0 0.0 0.00 0.00 0.00 75 1012.6
20260504012542 8 79 0.0 0.0 0.00 0.00 0.00 73 1012.6
20260504005542 9 79 0.0 0.0 0.00 0.00 0.00 71 1012.6
20260504002542 11 79 0.0 1.6 0.00 0.00 0.00 67 1012.6
20260503235542 11 79 1.6 4.8 0.00 0.00 0.00 66 1012.4
20260503232542 11 79 0.0 3.2 0.00 0.00 0.00 66 1012.5
20260503225542 12 79 0.0 0.0 0.00 0.00 0.00 63 1012.8
20260503222542 13 79 0.0 1.6 0.00 0.00 0.00 60 1012.7
20260503215546 15 80 0.0 3.2 0.00 0.00 0.00 56 1012.6
20260503215543 15 80 0.0 3.2 0.00 0.00 0.00 56 1012.6
20260503212543 15 77 0.0 6.4 0.00 0.00 0.00 55 1012.7
20260503205543 16 120 1.6 4.8 0.00 0.00 0.00 54 1012.8
20260503202543 16 142 4.8 9.7 0.00 0.00 0.00 52 1012.9
20260503195543 17 144 6.4 14.5 0.00 0.00 0.00 49 1013.0
20260503192543 18 123 8.0 19.3 0.00 0.00 0.00 47 1013.0
20260503185543 18 110 8.0 19.3 0.00 0.00 0.00 46 1013.0
20260503182543 19 103 6.4 14.5 0.00 0.00 0.00 45 1012.8
20260503175543 20 92 4.8 14.5 0.00 0.00 0.00 44 1012.8
20260503172543 21 105 6.4 12.9 0.00 0.00 0.00 41 1012.8
20260503072545 17 122 3.2 9.7 0.00 0.00 0.00 51 1017.5
20260503052545 4 139 0.0 0.0 0.00 0.00 0.00 82 1017.5
20260503045546 2 139 0.0 0.0 0.00 0.00 0.00 83 1017.6